Location: Austin
(30.3000°N, 97.7500°W)
Time: 11:04:49
(UTC-05:00)

Cosmos 2333 - Pass Details

Date: 26 May 2023
Orbit: 830 x 865 km, 70.9° (Epoch: 31 May)

Event Time Altitude Azimuth Distance (km) Brightness Sun altitude
Rises 20:56:08 0° 196° (SSW) 3,428 7.2 -6.8°
Reaches altitude 10° 20:58:35 10° 196° (SSW) 2,495 6.5 -7.3°
Maximum altitude 21:04:20 84° 109° (ESE) 871 4.2 -8.4°
Drops below altitude 10° 21:10:06 10° 21° (NNE) 2,500 6.8 -9.4°
Sets 21:12:33 0° 21° (NNE) 3,436 7.5 -9.9°
